This demonstration page uses our WeatherBlox Daily Observations layout. Learn more.

39.29038, -76.61219

Hourly Observations for October 19, 2020

Temp ( °F °C ) Dew Point ( °F °C ) Humidity (%) Winds ( mph kmh ) Pressure ( in mb ) Visibility ( mi km ) Precip ( " mm )
12:54 am 00:54 Partly Cloudy 52 11.1 50 10 93 93 Calm 30.32 1027 10 16.0934 0 0
1:54 am 01:54 Partly Cloudy 53 11.7 50 10 89 89 Calm 30.32 1027 10 16.0934 0 0
2:54 am 02:54 Mostly Cloudy 52 11.1 50 10 93 93 Calm 30.31 1026 10 16.0934 0 0
3:54 am 03:54 Partly Cloudy 53 11.7 50 10 89 89 Calm 30.3 1026 10 16.0934 0 0
6:54 am 06:54 Partly Cloudy 53 11.7 50 10 89 89 ESE 7 11 30.29 1026 10 16.0934 0 0
7:54 am 07:54 Mostly Cloudy 52 11.1 49 9.4 89 89 Calm 30.29 1026 7 11.26538 0 0
8:54 am 08:54 Mostly Cloudy 57 13.9 53 11.7 87 87 Calm 30.31 1026 7 11.26538 0 0
9:54 am 09:54 Mostly Cloudy 61 16.1 56 13.3 84 84 Calm 30.31 1026 7 11.26538 0 0
10:12 am 10:12 Mostly Cloudy 61 16.1 56 13.3 84 84 ESE 7 11 30.3 1026 7 11.26538 0 0
10:54 am 10:54 Mostly Cloudy 65 18.3 57 13.9 76 76 SE 7 11 30.29 1026 10 16.0934 0 0
11:54 am 11:54 Mostly Cloudy 70 21.1 56 13.3 61 61 VRB 7 11 30.29 1026 10 16.0934 0 0
12:20 pm 12:20 Cloudy 68 20 55 12.8 63 63 SW 7 11 30.3 1026 10 16.0934 0 0
12:54 pm 12:54 Mostly Cloudy 69 20.6 56 13.3 63 63 SE 7 11 30.28 1025 10 16.0934 0 0
1:44 pm 13:44 Mostly Cloudy 71 21.7 56 13.3 59 59 VRB 6 9 30.26 1025 10 16.0934 0 0
1:54 pm 13:54 Mostly Cloudy 70 21.1 56 13.3 61 61 SE 9 15 30.26 1025 10 16.0934 0 0
2:54 pm 14:54 Mostly Cloudy 72 22.2 55 12.8 55 55 VRB 7 11 30.24 1024 10 16.0934 0 0
3:11 pm 15:11 Mostly Cloudy 71 21.7 54 12.2 55 55 SSE 10 17 30.22 1024 10 16.0934 0 0
3:54 pm 15:54 Mostly Cloudy 70 21.1 55 12.8 59 59 SSE 5 7 30.24 1024 10 16.0934 0 0
4:54 pm 16:54 Mostly Cloudy 70 21.1 55 12.8 59 59 SE 8 13 30.24 1024 10 16.0934 0 0
5:54 pm 17:54 Mostly Cloudy 68 20 55 12.8 63 63 SE 6 9 30.24 1024 10 16.0934 0 0
6:54 pm 18:54 Mostly Cloudy 66 18.9 55 12.8 68 68 SSE 5 7 30.24 1024 10 16.0934 0 0
7:54 pm 19:54 Mostly Cloudy 63 17.2 54 12.2 73 73 SE 3 6 30.25 1024 10 16.0934 0 0
8:54 pm 20:54 Mostly Clear 62 16.7 55 12.8 78 78 SE 5 7 30.2 1023 10 16.0934 0 0
9:54 pm 21:54 Partly Cloudy 61 16.1 55 12.8 81 81 SSE 3 6 30.22 1023 10 16.0934 0 0
10:54 pm 22:54 Mostly Clear 59 15 55 12.8 87 87 NNW 7 11 30.25 1024 10 16.0934 0 0
11:54 pm 23:54 Mostly Clear 58 14.4 54 12.2 87 87 SE 8 13 30.24 1024 10 16.0934 0 0

Powered by AerisWeather